{"data":{"norad_id":48245,"intl_designator":"2021-031AM","name":"ONEWEB-0217","alt_names":[],"object_type":"PAYLOAD","status":"ACTIVE","operator":null,"country":"UK","launch_date":"2021-04-25","launch_site_code":"VOSTO","launch_vehicle":null,"mission":null,"orbit_class":"UNKNOWN","rcs_meters":null,"size_class":null,"mass_kg":null,"dimensions":null,"purposes":["comms"],"wikipedia_slug":null,"has_3d_model":false,"image_url":null,"decayed_at":null,"tle_current":{"epoch":"2026-09-19T18:07:18.804000Z","epoch_age_seconds":86359,"freshness":"FRESH","line1":"1 48245U 21031AM  26262.75507875 -.00000194  00000+0 -55841-3 0  9993","line2":"2 48245  87.8900 270.8421 0001641  83.6681 276.4635 13.14503489260600","mean_motion":13.14503489,"eccentricity":0.0001641,"inclination_deg":87.89,"raan_deg":270.8421,"arg_perigee_deg":83.6681,"mean_anomaly_deg":276.4635,"bstar":-0.00055841,"rev_number":26060,"period_min":109.54706564495,"perigee_km":1204.5431825111,"apogee_km":1207.0322265992,"semimajor_km":7583.9247045551,"source":"CELESTRAK","updated_at":"2026-09-20T09:00:44.614245Z"}}}